Date String (YYYY-MM-DD hh:mm:ss) UTC,Instrument flags,absolute air pressure of the measurement (hPa),sample flow rate (lpm),inlet stack bypass flow (lpm),air temperature of the measurement (°C),ambient temperature measured by the external sensor (°C),aerosol sample conditioner tube jacket temperature (°C),OPC LED temperature (°C),internal box temperature (°C),relative humidity of the measurement (%),span deviation,mass concentration of particles derived from Lorenz-Mie calculation of OPC scattering (μg/m³),mass concentration of particles derived from Lorenz-Mie calculation of OPC scattering (μg/m³),mass concentration of particles derived from Lorenz-Mie calculation of OPC scattering (μg/m³)
DateTimeUTC,F1_M11,P_M11,Q1_M11,Q2_M11,T1_M11,T2_M11,T3_M11,T4_M11,T5_M11,U1_M11,ZSPAN_M11,X0_M11,X2_M11,X1_M11
2024-06-10 11:00:00,SystemResetWarning,0830.0,5.00,000.00,031.2,030.4,000.0,039.7,032.9,031.2,0000.0,0014.83,0009.20,0008.55
2024-06-10 11:01:00,SystemResetWarning,0830.0,5.00,000.00,031.2,030.4,000.0,039.7,032.8,031.2,0000.0,0014.98,0009.20,0008.55
2024-06-10 11:02:00,SystemResetWarning,0830.0,4.99,000.00,031.2,030.4,000.0,039.7,032.8,031.3,0000.3,0015.02,0009.21,0008.57
2024-06-10 11:03:00,SystemResetWarning,0830.0,5.00,000.00,031.2,030.4,000.0,039.7,032.9,031.4,0000.6,0015.32,0009.25,0008.62
2024-06-10 11:04:00,SystemResetWarning,0829.9,4.99,000.00,031.2,030.4,000.0,039.7,032.9,031.4,0000.9,0015.16,0009.29,0008.66
2024-06-10 11:05:00,SystemResetWarning,0829.9,5.00,000.00,031.2,030.4,000.0,039.7,032.9,031.4,0001.1,0014.49,0009.37,0008.72
2024-06-10 11:06:00,SystemResetWarning,0829.9,5.00,000.00,031.2,030.4,000.0,039.7,032.9,031.4,0001.1,0014.68,0009.50,0008.80
2024-06-10 11:07:00,SystemResetWarning,0830.0,5.01,000.00,031.2,030.4,000.0,039.7,032.9,031.5,0000.9,0014.88,0009.63,0008.89
2024-06-10 11:08:00,SystemResetWarning,0829.9,5.00,000.00,031.2,030.4,000.0,039.7,032.8,031.5,0000.6,0014.98,0009.69,0008.96
2024-06-10 11:09:00,SystemResetWarning,0829.9,5.00,000.00,031.2,030.4,000.0,039.7,032.8,031.5,0000.4,0014.99,0009.71,0009.01
2024-06-10 11:10:00,SystemResetWarning,0829.9,4.99,000.00,031.2,030.4,000.0,039.7,032.9,031.6,0000.4,0014.62,0009.78,0009.06
2024-06-10 11:11:00,SystemResetWarning,0830.0,4.99,000.00,031.2,030.4,000.0,039.7,032.9,031.8,0001.1,0014.00,0009.86,0009.12
2024-06-10 11:12:00,SystemResetWarning,0829.9,5.00,000.00,031.2,030.4,000.0,039.7,032.9,031.8,0001.5,0013.93,0009.94,0009.18
2024-06-10 11:13:00,SystemResetWarning,0830.0,5.00,000.00,031.2,030.4,000.0,039.7,032.8,031.8,0001.5,0013.83,0009.98,0009.22
2024-06-10 11:14:00,SystemResetWarning,0830.0,5.00,000.00,031.2,030.4,000.0,039.7,032.8,031.8,0001.0,0013.84,0010.01,0009.24
2024-06-10 11:15:00,SystemResetWarning,0830.0,5.01,000.00,031.2,030.4,000.0,039.7,032.8,031.8,0000.8,0013.93,0010.05,0009.28
2024-06-10 11:16:00,SystemResetWarning,0830.0,5.00,000.00,031.2,030.4,000.0,039.7,032.8,032.0,0000.2,0013.85,0010.07,0009.34
2024-06-10 11:17:00,SystemResetWarning,0830.1,5.01,000.00,031.2,030.4,000.0,039.7,032.8,031.8,0000.4,0013.57,0010.01,0009.37
2024-06-10 11:18:00,SystemResetWarning,0830.0,5.00,000.00,031.1,030.3,000.0,039.7,032.8,031.5,0000.1,0013.52,0010.00,0009.36
2024-06-10 11:19:00,SystemResetWarning,0830.0,4.99,000.00,031.2,030.3,000.0,039.7,032.8,031.2,-000.0,0013.40,0009.96,0009.30
2024-06-10 11:20:00,SystemResetWarning,0830.0,5.00,000.00,031.1,030.3,000.0,039.7,032.8,031.0,0000.0,0013.73,0009.88,0009.21
2024-06-10 11:21:00,SystemResetWarning,0830.0,5.00,000.00,031.1,030.3,000.0,039.7,032.8,030.7,0000.0,0013.76,0009.71,0009.09
2024-06-10 11:22:00,SystemResetWarning,0830.0,5.00,000.00,031.1,030.3,000.0,039.7,032.8,030.3,0000.0,0013.64,0009.55,0008.94
2024-06-10 11:23:00,SystemResetWarning,0830.0,5.00,000.00,031.1,030.4,000.0,039.7,032.8,029.8,0000.0,0013.55,0009.38,0008.77
2024-06-10 11:24:00,SystemResetWarning,0830.0,5.01,000.00,031.1,030.4,000.0,039.7,032.8,029.6,0000.0,0013.48,0009.17,0008.56
2024-06-10 11:25:00,SystemResetWarning,0830.0,5.01,000.00,031.1,030.4,000.0,039.7,032.9,029.3,0000.0,0013.12,0008.94,0008.33
2024-06-10 11:26:00,SystemResetWarning,0830.0,5.00,000.00,031.1,030.4,000.0,039.7,032.9,028.7,0000.0,0012.81,0008.68,0008.07
2024-06-10 11:27:00,SystemResetWarning,0830.0,5.00,000.00,031.1,030.4,000.0,039.7,032.8,028.6,0000.0,0012.59,0008.38,0007.77
2024-06-10 11:28:00,SystemResetWarning,0830.0,4.99,000.00,031.1,030.4,000.0,039.7,032.8,028.3,0000.0,0012.55,0008.16,0007.52
2024-06-10 11:29:00,SystemResetWarning,0830.0,5.00,000.00,031.1,030.3,000.0,039.7,032.8,028.3,0000.0,0012.08,0007.89,0007.28
2024-06-10 11:30:00,SystemResetWarning,0829.9,5.00,000.00,031.1,030.4,000.0,039.7,032.8,028.2,0000.0,0011.91,0007.68,0007.08
2024-06-10 11:31:00,SystemResetWarning,0830.0,4.99,000.00,031.1,030.3,000.0,039.7,032.8,028.1,0000.0,0011.39,0007.49,0006.91
2024-06-10 11:32:00,SystemResetWarning,0829.9,5.00,000.00,031.1,030.3,000.0,039.7,032.8,028.1,0000.0,0011.12,0007.38,0006.78
2024-06-10 11:33:00,SystemResetWarning,0829.9,5.00,000.00,031.1,030.3,000.0,039.7,032.8,028.1,0000.0,0011.04,0007.25,0006.67
2024-06-10 11:34:00,SystemResetWarning,0829.9,5.01,000.00,031.1,030.4,000.0,039.7,032.8,028.1,0000.0,0010.90,0007.10,0006.55
2024-06-10 11:35:00,SystemResetWarning,0830.0,5.00,000.00,031.1,030.4,000.0,039.7,032.8,028.1,0000.0,0010.69,0007.02,0006.49
2024-06-10 11:36:00,SystemResetWarning,0829.9,4.99,000.00,031.1,030.4,000.0,039.7,032.9,028.3,0000.0,0010.65,0006.99,0006.45
2024-06-10 11:37:00,SystemResetWarning,0829.9,4.98,000.00,031.2,030.3,000.0,039.7,032.9,028.4,0000.0,0011.57,0007.00,0006.46
2024-06-10 11:38:00,SystemResetWarning,0829.9,5.01,000.00,031.1,030.3,000.0,039.7,032.9,028.6,0000.0,0011.58,0007.01,0006.49
2024-06-10 11:39:00,SystemResetWarning,0829.8,5.01,000.00,031.1,030.3,000.0,039.7,032.9,028.7,0000.0,0011.62,0007.07,0006.55
2024-06-10 11:40:00,SystemResetWarning,0829.8,4.99,000.00,031.1,030.3,000.0,039.7,032.9,028.9,0000.0,0011.62,0007.15,0006.61
2024-06-10 11:41:00,SystemResetWarning,0829.8,5.00,000.00,031.1,030.4,000.0,039.6,032.9,029.1,0000.0,0012.49,0007.22,0006.69
2024-06-10 11:42:00,SystemResetWarning,0829.8,5.00,000.00,031.2,030.4,000.0,039.7,032.9,029.4,0000.0,0013.45,0007.35,0006.79
2024-06-10 11:43:00,SystemResetWarning,0829.8,5.00,000.00,031.2,030.3,000.0,039.7,032.8,029.5,0000.0,0013.60,0007.45,0006.92
2024-06-10 11:44:00,SystemResetWarning,0829.8,5.00,000.00,031.2,030.3,000.0,039.7,032.8,029.6,0000.0,0013.63,0007.54,0007.03
2024-06-10 11:45:00,SystemResetWarning,0829.9,5.00,000.00,031.1,030.3,000.0,039.7,032.8,029.7,0000.0,0014.24,0007.67,0007.15
2024-06-10 11:46:00,SystemResetWarning,0829.9,5.00,000.00,031.1,030.3,000.0,039.7,032.9,030.1,0000.0,0014.45,0007.82,0007.28
2024-06-10 11:47:00,SystemResetWarning,0829.9,5.00,000.00,031.1,030.3,000.0,039.6,032.9,030.0,0000.0,0014.77,0007.93,0007.41
2024-06-10 11:48:00,SystemResetWarning,0830.0,5.00,000.00,031.1,030.3,000.0,039.6,032.9,030.0,0000.0,0014.18,0008.02,0007.50
2024-06-10 11:49:00,SystemResetWarning,0830.0,5.00,000.00,031.2,030.4,000.0,039.6,032.9,030.1,0000.0,0014.19,0008.13,0007.60
2024-06-10 11:50:00,SystemResetWarning,0830.0,5.01,000.00,031.1,030.4,000.0,039.7,032.9,030.3,0000.0,0014.16,0008.19,0007.68
2024-06-10 11:51:00,SystemResetWarning,0830.0,5.00,000.00,031.2,030.4,000.0,039.7,032.9,030.4,0000.0,0014.27,0008.31,0007.79
2024-06-10 11:52:00,SystemResetWarning,0829.9,5.00,000.00,031.2,030.4,000.0,039.6,032.9,030.4,0002.5,0013.74,0008.41,0007.87
2024-06-10 11:53:00,SystemResetWarning,0829.9,5.00,000.00,031.2,030.4,000.0,039.6,032.9,030.5,0003.3,0013.79,0008.48,0007.92
2024-06-10 11:54:00,SystemResetWarning,0829.9,4.99,000.00,031.2,030.4,000.0,039.7,032.9,030.7,0002.2,0013.86,0008.54,0007.97
2024-06-10 11:55:00,SystemResetWarning,0829.9,4.99,000.00,031.2,030.4,000.0,039.7,032.8,030.8,0000.0,0014.13,0008.67,0008.05
2024-06-10 11:56:00,SystemResetWarning,0829.9,4.99,000.00,031.2,030.4,000.0,039.7,032.8,030.8,0001.4,0013.69,0008.77,0008.11
2024-06-10 11:57:00,SystemResetWarning,0829.9,5.01,000.00,031.2,030.4,000.0,039.7,032.8,030.9,0002.0,0013.93,0008.87,0008.18
2024-06-10 11:58:00,SystemResetWarning,0829.9,5.01,000.00,031.2,030.4,000.0,039.7,032.8,030.9,0001.9,0013.99,0008.95,0008.23
2024-06-10 11:59:00,SystemResetWarning,0829.9,5.00,000.00,031.2,030.4,000.0,039.7,032.8,031.0,0001.5,0014.21,0009.06,0008.31
